[[{"header":{"parameterUnit":"m.s-1","parameterCategory":1,"la1":30.2991,"la2":30.254,"lo1":-89.0895,"lo2":-89.0444,"dy":0.0017,"dx":0.0017,"nx":28,"ny":28,"refTime":"2023-06-25T21:00:00:Z","depth":0,"parameterNumber":2,"parameterNumberName":"U-component_of_WINDS"},"data":[0,0,0,0,0,0,0,0,0,0,0,0,0,0,0,0,0,0,0,0,0,0,0,0,0,0,0,0,0,0,0,0,0,0,0,0,0,0,0,0,0,0,0,0,0,0,0,0,0,0,0,0,0,0,0,0,0,0,4.9113,4.9116,0,4.9379,4.9382,4.9385,4.9431,4.9428,4.9426,4.9424,4.9697,4.9706,4.9716,0,0,0,0,0,0,0,0,0,0,0,0,0,4.8645,4.8653,4.9113,4.9116,4.912,4.9379,4.9382,4.9386,4.9431,4.9428,4.9426,4.9423,4.9694,4.9705,4.9716,0,0,0,0,0,0,0,0,0,0,0,0,0,4.8873,4.8656,4.9112,4.9173,4.9181,4.9378,4.9382,4.9387,4.9432,4.9428,4.9425,4.9422,4.969,4.9704,4.9718,4.9873,0,0,4.9761,4.9767,0,0,0,0,0,0,0,0,4.886,4.889,4.9161,4.9169,4.9179,4.9368,4.9317,4.955,4.9432,4.9337,4.9424,4.942,4.9591,4.9613,4.967,4.9885,4.9897,4.9762,4.9771,4.9777,4.9781,0,0,0,0,0,0,0,4.8844,4.8879,4.9218,4.9165,4.9176,4.9188,4.9216,4.9362,4.9479,4.9345,4.9349,4.938,4.9595,4.9656,4.9677,4.9901,4.9762,4.9774,4.9783,4.9788,5.0256,5.026,0,0,0,0,0,0,4.8817,4.8866,4.921,4.9226,4.9008,4.9199,4.9231,4.9311,4.9478,4.95,4.9382,4.9381,4.9634,4.966,4.9686,4.9878,4.9777,4.979,4.9798,5.0252,5.0257,5.0262,0,0,0,0,0,0,4.8807,4.8848,4.9199,4.9047,4.9093,4.921,4.93,4.9318,4.9379,4.9506,4.9527,4.9423,4.9632,4.9667,4.9826,4.9888,4.9796,4.9809,5.0248,5.0254,5.0259,5.0261,0,0,0,0,0,0,4.8793,4.8844,4.8903,4.9048,4.9101,4.9334,4.9304,4.9326,4.9403,4.9404,4.955,4.9571,4.9632,4.9805,4.984,4.9905,4.982,5.0243,5.025,5.0257,5.0256,5.0267,5.0276,0,0,0,0,0,4.8777,4.8894,4.8906,4.8947,4.9178,4.9337,4.9367,4.9435,4.9408,4.9469,4.9551,4.9567,4.9876,4.982,4.9861,4.9931,5.0239,5.0248,5.0257,5.0252,5.0265,5.0275,0,0,0,0,0,0,4.8753,4.8914,4.8929,4.9097,4.9203,4.9344,4.9423,4.9446,4.9562,4.9558,4.9637,4.967,4.9824,4.9894,4.983,5.009,5.0055,5.0073,5.0038,5.0051,5.006,5.004,4.9832,0,0,0,0,0,4.8767,4.8883,4.9017,4.9152,4.9205,4.9305,4.9377,4.9419,4.9533,4.9578,4.9671,4.9781,4.9902,4.9981,5.01,5.0267,5.0299,5.0336,5.0345,5.0353,5.0366,5.0459,5.0476,5.0291,5.0291,5.0291,0,0,4.8798,4.89,4.8968,4.915,4.9237,4.9355,4.9342,4.9468,4.9556,4.9597,4.9753,4.9825,4.9953,5.0116,5.0193,5.0179,5.0425,5.0364,5.0369,5.0379,5.047,5.0487,5.0503,5.0297,5.0296,5.0295,0,0,4.8913,4.9003,4.9124,4.9212,4.9345,4.9411,4.944,4.9579,4.9628,4.9785,4.9818,4.9925,5.0133,5.0223,5.0295,5.0445,5.0464,5.0482,5.0532,5.0622,5.0636,5.0649,5.0702,5.072,5.0496,5.0496,5.0496,0,4.8934,4.9114,4.9184,4.9308,4.9387,4.943,4.9553,4.9635,4.98,4.9853,4.9836,5.0098,5.0187,5.0371,5.0408,5.0466,5.0501,5.0465,5.0628,5.0642,5.0656,5.0707,5.0726,5.0497,5.0497,5.0497,5.0497,0,4.9132,4.9256,4.9339,4.9496,4.9584,4.9707,4.9797,4.9878,4.9913,4.9981,5.0141,5.0249,5.039,5.0438,5.0474,5.0628,5.0615,5.0612,5.0579,5.0673,5.0722,5.0743,5.0499,5.0498,5.0498,5.0498,0,0,4.9239,4.9434,4.9463,4.9535,4.9684,4.9782,4.9907,5.0045,5.0113,5.0225,5.0332,5.0507,5.0506,5.0588,5.0635,5.0714,5.0824,5.0701,5.0705,5.0719,5.0999,5.0999,5.102,5.0838,5.0842,5.0846,5.0988,0,4.9371,4.9595,4.9663,4.9851,4.9966,5.0009,5.0118,5.0222,5.0289,5.0396,5.0471,5.0593,5.0582,5.0632,5.0712,5.0793,5.0881,5.0785,5.0938,5.0942,5.0902,5.1046,5.1047,5.1175,5.1007,5.1011,5.1013,0,4.9555,4.967,4.9869,5.0004,5.0055,5.0152,5.0284,5.0386,5.0505,5.0548,5.064,5.068,5.0813,5.0774,5.0957,5.089,5.0957,5.1007,5.1013,5.1029,5.0982,5.1064,5.1218,5.1237,5.1044,5.1042,5.104,0,4.961,4.9816,4.9962,5.0022,5.0183,5.025,5.032,5.0436,5.0514,5.063,5.0682,5.0812,5.0882,5.0982,5.1056,5.1021,5.1233,5.12,5.1272,5.127,5.1313,5.1309,5.1478,5.1359,5.1359,5.1358,5.1358,0,4.975,4.987,4.9989,5.0078,5.0214,5.0291,5.0423,5.0495,5.0598,5.0702,5.0748,5.0845,5.0938,5.1047,5.1107,5.1249,5.1281,5.1319,5.1333,5.1314,5.1309,5.1358,5.135,5.1364,5.1363,5.1362,5.1361,0,4.9834,4.9919,5.008,5.022,5.0258,5.0351,5.0471,5.0559,5.0628,5.076,5.0795,5.0904,5.1035,5.1119,5.1287,5.1327,5.1482,5.1494,5.1441,5.1447,5.1514,5.1505,5.1719,5.175,5.1611,5.1612,5.1613,0,4.9916,5.0009,5.0159,5.0232,5.0303,5.042,5.05,5.058,5.0662,5.0804,5.0875,5.101,5.1121,5.1328,5.1422,5.1551,5.1565,5.1631,5.1585,5.1562,5.1564,5.1557,5.1566,5.1638,5.1639,5.164,5.1641,0,5.0053,5.009,5.0204,5.0333,5.0428,5.0533,5.0639,5.0696,5.0794,5.0884,5.1018,5.1104,5.1275,5.1407,5.1544,5.1617,5.1645,5.1655,5.1678,5.1658,5.1623,5.1641,5.146,5.1649,5.1648,5.1648,5.1647,5.1647,5.0138,5.0222,5.034,5.0466,5.0554,5.0651,5.0741,5.0821,5.0935,5.1079,5.112,5.126,5.1377,5.1563,5.1639,5.175,5.1741,5.1775,5.1784,5.179,5.179,5.1607,5.1775,5.1775,5.1775,5.1775,5.1775,0,5.0275,5.0353,5.0468,5.0614,5.0713,5.0731,5.0849,5.093,5.1053,5.1159,5.1268,5.1422,5.1551,5.1655,5.1788,5.1856,5.1872,5.1888,5.1883,5.1899,5.179,5.1756,5.1873,5.1873,5.1873,5.1873,5.1873,5.1873,5.0358,5.0501,5.0553,5.074,5.0818,5.0955,5.1021,5.1111,5.1196,5.1366,5.1473,5.1541,5.1646,5.1787,5.1906,5.1933,5.1979,5.1992,5.2022,5.1918,5.1907,5.1896,5.1865,5.2002,5.2002,5.2121,5.2122,5.2123]},{"header":{"parameterUnit":"m.s-1","parameterCategory":1,"la1":30.2991,"la2":30.254,"lo1":-89.0895,"lo2":-89.0444,"dy":0.0017,"dx":0.0017,"nx":28,"ny":28,"refTime":"2023-06-25T21:00:00:Z","depth":0,"parameterNumber":3,"parameterNumberName":"V-component_of_WINDS"},"data":[0,0,0,0,0,0,0,0,0,0,0,0,0,0,0,0,0,0,0,0,0,0,0,0,0,0,0,0,0,0,0,0,0,0,0,0,0,0,0,0,0,0,0,0,0,0,0,0,0,0,0,0,0,0,0,0,0,0,3.2818,3.2818,0,3.2785,3.2785,3.2784,3.2701,3.2699,3.2697,3.2695,3.2664,3.2665,3.2666,0,0,0,0,0,0,0,0,0,0,0,0,0,3.2812,3.2812,3.2818,3.2818,3.2818,3.2785,3.2785,3.2784,3.2701,3.2699,3.2697,3.2695,3.2664,3.2665,3.2666,0,0,0,0,0,0,0,0,0,0,0,0,0,3.28,3.2813,3.2818,3.2772,3.2767,3.2785,3.2785,3.2784,3.2702,3.2699,3.2696,3.2694,3.2664,3.2665,3.2666,3.2727,0,0,3.267,3.267,0,0,0,0,0,0,0,0,3.2801,3.2801,3.2779,3.2775,3.277,3.2744,3.2771,3.2765,3.2702,3.2727,3.2695,3.2692,3.2693,3.2692,3.2692,3.2726,3.2724,3.267,3.2671,3.2671,3.2672,0,0,0,0,0,0,0,3.2802,3.2802,3.2805,3.2779,3.2774,3.2754,3.2749,3.277,3.2725,3.2724,3.2718,3.2715,3.269,3.2691,3.269,3.2724,3.267,3.2671,3.2672,3.2672,3.2807,3.281,0,0,0,0,0,0,3.2809,3.2803,3.2806,3.2804,3.2779,3.2756,3.2751,3.2755,3.2725,3.2718,3.2718,3.2711,3.269,3.2689,3.2689,3.2759,3.2671,3.2672,3.2673,3.2804,3.2808,3.2811,0,0,0,0,0,0,3.2809,3.281,3.2808,3.2802,3.28,3.2759,3.2765,3.2756,3.2756,3.272,3.2712,3.2726,3.2688,3.2687,3.2718,3.2756,3.2673,3.2674,3.2801,3.2805,3.2809,3.2899,0,0,0,0,0,0,3.281,3.2811,3.2833,3.2803,3.2801,3.2837,3.2767,3.2757,3.2758,3.275,3.2725,3.2719,3.2686,3.2717,3.2719,3.2757,3.2675,3.2797,3.2803,3.2808,3.2893,3.2906,3.2917,0,0,0,0,0,3.281,3.286,3.2835,3.2835,3.2827,3.2839,3.2838,3.2798,3.2762,3.2784,3.2761,3.272,3.2752,3.2721,3.2723,3.2761,3.2795,3.2801,3.2808,3.2887,3.2903,3.2917,0,0,0,0,0,0,3.2897,3.2855,3.2827,3.2869,3.2858,3.2825,3.2852,3.2817,3.2817,3.2809,3.276,3.2755,3.2793,3.278,3.2746,3.2819,3.2767,3.2774,3.2826,3.2841,3.2854,3.2856,3.2676,0,0,0,0,0,3.292,3.2933,3.2896,3.2937,3.2933,3.2894,3.2898,3.2868,3.2855,3.285,3.2829,3.2819,3.2827,3.2833,3.2839,3.289,3.2884,3.2918,3.293,3.294,3.2947,3.2974,3.2989,3.2832,3.2832,3.2832,0,0,3.297,3.2949,3.296,3.2954,3.2942,3.2957,3.2891,3.2909,3.292,3.2853,3.2881,3.2866,3.2852,3.2893,3.2911,3.2884,3.2989,3.2948,3.2957,3.2958,3.2982,3.2997,3.3011,3.2836,3.2835,3.2835,0,0,3.3069,3.3054,3.3086,3.3076,3.3059,3.3032,3.304,3.3013,3.2999,3.3027,3.2977,3.299,3.3004,3.2996,3.2994,3.309,3.3053,3.3093,3.3158,3.3185,3.3198,3.3208,3.3243,3.3256,3.31,3.31,3.31,0,3.3133,3.3153,3.3108,3.3129,3.3128,3.3068,3.3101,3.3093,3.308,3.3081,3.305,3.3067,3.3053,3.3093,3.3116,3.3116,3.3125,3.3096,3.3199,3.321,3.3219,3.3252,3.3265,3.3105,3.3105,3.3104,3.3104,0,3.3233,3.3247,3.3276,3.3263,3.3265,3.3293,3.3253,3.3261,3.3231,3.3208,3.3237,3.3218,3.3219,3.3226,3.3197,3.3261,3.3245,3.3208,3.3154,3.324,3.327,3.3282,3.3113,3.3111,3.3109,3.3108,0,0,3.3385,3.3347,3.3359,3.3352,3.3329,3.334,3.3365,3.3364,3.3373,3.3365,3.3386,3.3399,3.3365,3.3362,3.3332,3.3356,3.3434,3.3315,3.3314,3.3339,3.3505,3.3534,3.3549,3.3409,3.3411,3.3412,3.3506,0,3.3479,3.3518,3.3479,3.3527,3.354,3.3483,3.3505,3.3494,3.3473,3.3482,3.346,3.347,3.3423,3.3422,3.3442,3.342,3.3467,3.3413,3.3428,3.3429,3.3434,3.3565,3.3595,3.3685,3.3518,3.352,3.3521,0,3.3593,3.359,3.3639,3.3613,3.3617,3.3637,3.3634,3.3643,3.363,3.3613,3.3611,3.3574,3.3598,3.3545,3.3578,3.3542,3.3546,3.3536,3.3538,3.3539,3.3481,3.357,3.3712,3.3726,3.3539,3.3538,3.3536,0,3.37,3.3708,3.3739,3.3735,3.3705,3.3721,3.371,3.3693,3.3696,3.3694,3.3695,3.3696,3.3697,3.3699,3.3663,3.3628,3.3701,3.3645,3.3689,3.369,3.3707,3.3707,3.3853,3.3709,3.3709,3.3708,3.3708,0,3.3808,3.3841,3.3787,3.3806,3.3841,3.3795,3.3832,3.3815,3.3801,3.3816,3.3767,3.3783,3.3735,3.3746,3.3718,3.375,3.3751,3.3739,3.3731,3.3744,3.3745,3.3746,3.3739,3.3712,3.3711,3.371,3.371,0,3.3934,3.3899,3.3929,3.3898,3.3891,3.3919,3.3893,3.391,3.3886,3.3906,3.3908,3.3871,3.3882,3.3846,3.3851,3.3833,3.388,3.3861,3.3884,3.3879,3.3925,3.3922,3.4078,3.4096,3.394,3.3941,3.3942,0,3.4006,3.403,3.4002,3.4008,3.3999,3.401,3.4012,3.3969,3.3973,3.396,3.3979,3.3985,3.3987,3.4007,3.3981,3.3985,3.3967,3.4022,3.3967,3.3979,3.3969,3.3968,3.3971,3.4033,3.4035,3.4037,3.4038,0,3.4138,3.4119,3.4124,3.4123,3.4127,3.4124,3.4118,3.4127,3.408,3.4088,3.4097,3.4099,3.4104,3.4111,3.411,3.4099,3.4062,3.4055,3.4066,3.4079,3.4091,3.4086,3.3916,3.4052,3.4051,3.405,3.4049,3.4048,3.4239,3.4258,3.4241,3.4248,3.4239,3.4235,3.4249,3.4227,3.4234,3.4234,3.4208,3.4223,3.421,3.4203,3.4196,3.4208,3.4183,3.4198,3.4202,3.4206,3.4215,3.4089,3.4208,3.4207,3.4207,3.4206,3.4206,0,3.4369,3.4355,3.4362,3.4355,3.4361,3.4324,3.4316,3.4324,3.4337,3.4327,3.4331,3.4343,3.435,3.4324,3.4328,3.4342,3.4326,3.4345,3.4344,3.4342,3.4237,3.4227,3.4359,3.4359,3.4359,3.4359,3.4359,3.4359,3.4438,3.4467,3.4447,3.4472,3.4458,3.4472,3.447,3.4467,3.4458,3.4473,3.4479,3.4462,3.4446,3.4448,3.4453,3.4446,3.445,3.4476,3.4462,3.4364,3.435,3.4335,3.4327,3.4476,3.4477,3.4567,3.4568,3.4569]}]]